Wind_Speed
72 73 74 74 73 73 73 73 73 73 72 73 74 76 77 78 79 80 81 82 82 82 84 87 88 89 91 92 91 89 85 82 79 77 73 69 65 62 60 58 57 55 52 50 48 46 46 45 44 42 40 37 36 33 29 28 26 21 17 14 14 15 17 20 22 23 24 25 26 27 26 25 25 24 21 19 19 17 16 16 16 15 15 14 13
74 76 76 75 74 73 74 76 76 75 75 75 76 77 78 79 80 81 82 83 84 85 87 88 89 91 92 92 89 85 82 80 78 75 71 66 63 61 59 57 55 53 51 49 47 45 46 45 44 41 38 36 35 32 28 26 23 19 15 14 15 16 18 21 23 24 25 26 26 27 26 25 24 24 22 19 19 18 17 16 16 16 15 15 14
77 77 77 76 76 76 78 79 77 77 77 76 77 80 81 81 81 83 84 85 87 88 89 90 91 91 92 90 86 83 80 78 76 73 69 64 61 60 59 57 54 52 50 48 46 45 46 45 44 40 37 35 34 31 27 23 20 16 14 15 16 17 19 21 24 25 26 26 27 27 25 24 23 24 22 19 18 18 17 16 16 16 16 15 14
79 80 81 81 80 80 80 79 78 79 79 79 82 84 84 83 83 86 87 88 90 91 91 92 91 90 90 88 85 82 80 77 74 71 67 62 59 59 58 56 54 51 49 47 45 46 47 46 43 39 36 34 33 30 25 21 17 15 14 15 17 19 20 22 24 26 26 27 27 27 25 23 22 22 21 18 17 16 16 16 16 16 16 15 14
81 83 85 85 82 83 83 81 82 83 83 84 86 86 86 85 86 89 89 91 92 92 92 92 91 89 88 86 84 82 80 75 71 68 64 59 57 57 56 55 53 50 48 46 45 46 47 46 42 38 35 33 31 29 24 19 17 15 13 14 18 21 23 23 23 24 26 27 27 26 25 22 20 21 20 18 16 15 14 14 14 15 15 15 15
84 85 86 87 85 86 86 86 87 87 87 87 88 89 88 89 89 90 91 92 93 93 93 92 90 87 86 84 82 81 78 72 69 64 58 54 53 54 54 54 52 49 47 45 45 46 46 45 40 36 34 32 30 26 22 17 17 17 15 16 20 22 24 25 23 22 24 26 27 26 24 22 19 19 19 18 16 15 14 13 13 13 15 15 16
86 88 90 90 89 89 89 89 89 89 90 90 90 90 90 90 90 91 91 93 93 94 93 92 89 86 84 82 81 79 75 70 65 58 51 49 51 52 52 52 49 47 46 45 45 46 46 43 39 35 33 32 28 24 20 16 17 18 18 20 24 24 26 26 23 21 22 24 25 25 24 22 19 18 18 18 17 15 14 13 13 13 14 15 16
89 91 92 92 92 92 91 91 91 91 92 92 90 90 91 91 92 92 93 94 94 93 92 90 87 84 81 79 78 76 72 66 58 50 46 46 49 51 50 48 46 45 45 44 44 45 45 41 36 33 32 31 28 23 18 17 18 20 22 25 26 26 26 25 23 22 21 21 22 23 23 22 20 18 18 18 18 16 15 14 14 14 14 15 16
93 93 94 94 94 94 94 93 93 93 93 92 91 91 92 92 93 93 93 93 93 91 89 87 84 81 78 75 74 73 69 61 52 46 43 45 47 48 46 45 44 44 44 44 43 44 43 38 34 32 31 30 26 21 17 18 20 22 23 25 26 26 26 25 24 21 19 20 20 21 21 21 21 20 19 19 18 17 16 15 14 14 15 16 16
95 95 95 96 96 96 95 95 95 94 94 94 94 94 94 93 93 93 92 91 90 88 86 84 81 78 74 71 70 69 64 55 48 45 44 44 44 45 44 44 43 43 43 42 42 42 40 36 33 30 30 28 25 21 19 20 21 22 23 24 26 27 27 25 23 20 19 20 19 19 20 21 21 21 21 20 19 19 17 16 15 15 15 16 16
97 97 97 97 97 97 96 97 96 95 95 95 95 95 94 93 92 90 89 88 87 85 83 80 78 74 70 68 66 63 58 51 46 44 44 44 43 44 43 43 44 43 42 40 40 40 38 34 31 30 29 27 25 23 22 23 22 23 23 24 26 27 28 26 24 21 20 21 20 19 19 21 21 21 21 20 20 20 19 17 16 15 16 16 16
98 98 97 97 97 97 97 97 97 96 96 95 94 93 92 91 89 88 86 85 84 82 79 77 74 71 67 64 62 57 54 50 46 43 43 43 42 42 42 44 44 41 39 38 38 38 35 32 30 29 28 27 24 24 24 24 23 24 24 25 25 28 28 26 23 20 21 22 21 20 20 20 21 21 20 19 20 21 20 18 17 16 16 16 16
98 97 96 96 97 97 96 96 96 95 94 93 92 91 90 88 87 85 84 83 80 78 76 73 71 68 64 60 57 53 51 49 46 43 41 40 40 42 43 43 40 37 37 36 36 35 33 30 29 28 28 26 24 25 27 26 23 23 25 26 26 29 29 27 21 20 24 25 23 22 21 20 20 21 20 20 20 21 21 19 17 16 16 16 16
97 95 94 94 94 94 94 94 93 92 91 90 89 88 87 85 84 83 82 80 77 75 72 70 67 64 61 56 52 49 48 48 46 42 40 40 41 43 41 39 36 35 35 34 33 33 32 30 29 28 27 26 24 25 29 30 24 22 24 27 27 29 30 26 21 18 23 27 24 23 23 22 21 21 21 20 20 21 21 21 19 18 17 17 17
94 93 92 92 91 92 91 91 90 89 89 88 87 85 84 82 81 81 79 77 74 72 69 67 64 61 57 52 48 47 47 47 46 43 42 41 41 40 38 36 35 35 34 33 32 31 31 30 29 28 26 24 24 24 31 33 27 23 22 25 27 30 31 26 22 19 22 24 22 23 24 24 23 21 21 21 21 21 22 22 21 20 20 19 19
91 90 90 89 89 89 88 88 87 87 86 85 84 82 80 79 78 78 77 74 71 69 66 64 61 57 53 49 46 46 46 46 46 44 43 41 40 39 36 35 35 34 33 32 31 30 29 29 29 27 24 23 23 24 32 35 30 26 23 24 28 32 34 28 23 21 23 26 25 25 26 25 24 22 21 22 21 21 21 22 22 22 22 22 21
89 88 88 88 87 87 86 86 85 85 84 83 81 79 78 76 75 74 73 71 68 66 63 60 57 53 50 48 45 45 45 44 43 42 40 39 38 37 36 35 34 33 32 30 29 28 28 28 28 26 23 22 22 22 31 38 33 29 27 27 30 30 34 31 25 23 23 26 27 28 28 28 26 24 21 22 21 20 20 21 22 22 22 22 21
88 87 87 87 86 85 85 84 83 83 82 80 78 76 74 73 71 70 69 67 65 63 60 56 52 48 47 46 44 42 42 41 40 39 38 37 37 37 36 35 33 31 30 28 27 27 27 28 27 24 22 20 22 22 31 39 34 31 30 30 32 29 32 31 26 25 24 25 26 27 29 29 28 25 21 20 21 19 18 18 19 19 19 19 19
87 86 86 86 85 85 84 83 82 81 80 78 76 74 71 69 69 67 65 63 61 60 57 52 48 45 45 43 41 40 38 37 36 35 35 35 36 36 34 32 30 29 28 26 26 26 27 28 26 24 21 20 21 22 32 39 34 33 31 31 33 33 32 28 25 26 28 28 28 28 29 29 28 26 23 21 20 18 17 17 16 15 14 14 14
86 86 85 85 84 83 82 82 81 80 78 76 74 72 68 67 65 64 62 60 58 57 53 49 45 43 41 39 38 36 35 34 34 33 32 33 33 32 30 29 28 27 26 25 25 26 27 27 25 23 21 20 21 23 33 39 36 35 33 31 33 35 34 30 28 27 29 32 32 31 30 30 28 27 26 22 19 18 18 18 16 14 12 11 10
86 85 84 83 82 82 81 80 79 78 76 74 72 69 66 64 62 61 59 58 56 54 52 48 45 42 39 37 35 34 34 33 33 32 31 31 30 29 28 27 26 25 24 23 24 24 26 25 23 22 20 20 21 23 34 41 38 36 35 32 29 34 35 33 32 27 27 32 34 33 30 29 27 25 25 22 20 17 16 16 14 12 11 10 10
84 83 82 81 81 80 79 78 77 76 75 72 70 68 64 62 60 59 57 56 55 53 51 49 46 42 39 36 35 34 33 32 32 32 31 29 28 27 26 25 23 23 22 22 23 23 24 23 22 21 19 20 21 23 33 42 40 37 37 33 28 31 34 36 37 27 20 25 32 31 26 26 25 23 24 23 22 18 15 13 12 11 10 10 10
83 81 80 79 79 79 78 76 75 74 73 71 68 65 62 60 59 58 55 54 53 52 52 51 47 42 39 37 36 34 32 31 30 28 27 26 26 25 23 21 20 20 20 21 22 22 22 22 21 20 19 19 21 23 32 41 42 39 38 35 29 29 33 39 39 30 20 19 26 29 26 26 24 23 24 25 24 21 17 14 12 11 11 11 10
80 80 78 77 76 76 76 74 73 72 70 68 65 62 60 58 57 56 54 52 52 52 53 55 53 49 45 42 40 36 31 31 27 22 24 25 25 24 22 21 20 19 20 20 20 21 21 21 21 20 19 20 21 23 30 39 42 42 41 37 32 29 33 39 40 38 30 21 21 24 26 28 27 25 25 26 25 22 20 17 15 13 12 11 10
77 77 76 74 74 73 73 72 71 69 67 65 63 59 57 56 54 54 53 51 52 51 51 53 54 54 52 49 47 37 27 23 21 20 24 24 23 24 23 21 20 19 19 19 19 20 21 21 21 20 20 20 21 23 29 38 43 43 42 40 36 31 33 37 41 42 36 28 24 19 20 26 32 31 27 27 26 24 21 19 17 16 15 13 12
74 75 73 72 71 71 70 69 68 66 63 62 60 57 55 53 51 51 50 49 49 50 50 49 50 50 48 48 45 33 22 18 18 22 25 25 24 24 24 22 20 20 19 18 18 20 21 21 22 21 21 21 22 23 28 36 43 44 43 43 39 34 34 36 40 42 38 35 30 21 18 22 32 35 30 28 28 26 23 20 18 17 17 16 14
72 72 71 70 69 68 67 66 65 63 60 59 57 56 53 50 49 49 48 47 48 48 49 48 48 44 40 42 39 30 23 19 19 23 25 26 24 23 22 23 23 20 19 19 20 21 22 22 22 22 21 22 23 24 27 34 42 44 44 44 42 38 37 37 39 41 40 38 33 24 21 22 28 33 31 28 29 28 24 21 20 18 18 16 15
69 70 68 67 66 65 64 62 61 59 57 55 54 53 51 48 47 47 46 47 47 47 47 46 45 40 37 41 38 30 23 18 19 22 23 21 21 23 23 25 24 21 21 22 22 21 22 23 23 23 22 22 23 25 27 32 40 44 44 43 42 40 39 38 39 41 42 40 35 27 23 22 25 29 31 30 30 30 27 24 22 19 18 17 15
67 67 65 64 63 62 60 58 57 56 54 52 50 51 49 47 45 45 45 45 45 45 45 45 43 38 35 39 37 32 24 20 22 24 23 22 21 24 24 26 25 22 23 24 23 22 23 24 24 23 23 23 24 26 27 30 37 44 45 41 36 38 40 40 40 41 43 43 39 31 25 23 23 26 30 34 34 32 30 27 24 22 20 17 15
64 63 62 61 60 59 57 55 54 52 51 49 47 47 46 45 44 43 43 43 43 43 44 44 43 38 34 35 36 33 27 24 25 24 25 25 23 22 22 25 26 26 26 24 23 23 24 25 24 23 23 24 25 26 27 30 35 41 47 43 33 32 38 41 42 42 44 45 43 36 29 25 23 24 26 32 36 34 31 29 26 24 22 19 17
60 59 58 57 56 55 54 52 50 49 47 46 44 43 43 43 42 42 42 42 41 42 43 42 42 41 38 36 35 34 29 24 23 24 25 27 26 24 23 24 24 24 23 22 21 22 23 23 23 22 23 24 25 26 27 30 34 38 45 47 39 32 34 39 42 42 44 46 45 41 35 29 25 25 23 26 32 34 32 30 27 25 22 19 18
56 55 54 53 52 51 50 48 47 45 43 43 41 41 41 41 41 41 41 41 41 41 41 40 39 41 44 42 38 34 31 27 24 24 24 27 28 27 28 28 25 21 19 21 21 19 20 20 20 22 22 24 26 27 28 29 34 37 42 47 44 36 32 35 39 41 42 43 45 44 39 33 27 25 23 21 23 26 26 27 27 27 26 24 22
52 51 50 49 49 47 46 44 43 42 40 40 40 39 39 39 39 41 40 40 40 40 40 40 39 40 45 48 44 37 33 32 28 26 25 26 28 29 31 31 28 24 21 22 21 18 18 18 19 21 22 24 26 28 29 30 33 36 39 44 46 41 34 32 35 39 41 41 42 43 41 36 31 27 24 22 20 19 18 18 19 21 24 25 24
49 47 47 46 45 44 43 41 40 39 39 38 38 38 37 37 38 39 39 39 40 40 40 42 42 40 42 47 49 44 39 35 32 31 28 28 30 30 29 29 29 28 25 27 26 19 17 18 18 20 22 24 26 28 29 30 31 34 37 41 45 46 39 33 33 37 41 42 42 43 41 38 36 32 27 25 24 21 19 17 16 16 17 17 17
46 45 44 44 43 42 40 39 38 38 38 37 37 37 36 37 37 38 38 39 40 40 41 43 46 44 42 45 50 49 45 39 37 37 35 33 33 33 31 30 31 31 28 29 26 19 18 19 19 20 23 24 26 28 29 30 31 33 35 38 42 46 45 39 34 36 40 43 43 43 43 40 38 36 33 31 29 28 26 24 23 21 20 17 16
45 44 43 42 41 40 39 37 36 36 36 36 35 36 36 36 36 37 38 39 40 41 41 42 46 48 47 46 48 50 48 45 41 39 40 40 39 38 36 34 34 32 30 29 24 21 23 24 23 22 22 24 26 27 29 30 32 33 34 36 39 42 46 45 39 36 38 43 45 44 43 42 40 38 37 36 34 33 31 30 29 28 27 24 21
43 44 43 41 40 39 38 36 35 34 34 34 34 34 35 35 36 36 37 39 40 41 42 42 44 47 49 50 50 50 49 50 48 42 39 41 43 41 39 39 38 35 33 31 28 26 26 27 26 23 22 23 25 27 28 29 31 33 34 35 36 38 43 47 45 39 37 40 44 45 44 42 41 40 39 39 37 35 34 33 32 32 32 30 25
42 43 42 40 39 38 37 36 35 33 32 32 33 34 35 35 36 36 37 38 40 40 41 42 43 44 46 49 50 50 49 51 53 49 43 40 42 43 39 39 40 37 34 33 32 32 30 28 28 27 26 24 25 27 27 28 30 32 34 35 35 36 39 43 45 44 41 40 41 43 45 43 42 41 39 39 38 37 36 34 33 32 33 32 29
41 41 42 41 39 37 36 36 35 34 32 32 32 33 35 36 36 36 36 38 39 40 40 41 42 42 44 45 46 48 50 51 53 55 51 43 42 44 41 38 39 37 34 34 35 36 33 31 30 31 32 28 25 27 27 27 28 30 33 35 35 36 38 41 43 44 44 43 42 42 43 44 45 43 39 39 38 39 38 37 35 33 33 32 30
40 41 42 41 39 37 36 36 35 34 33 32 32 33 35 36 36 36 37 38 40 40 40 40 41 41 42 43 43 45 48 50 51 54 54 47 44 46 44 40 39 37 36 37 37 36 34 33 33 33 36 32 27 26 26 26 27 28 30 33 36 37 38 39 40 41 42 45 45 43 42 43 45 44 41 39 38 37 38 37 36 35 33 32 31
40 41 42 40 38 37 36 36 35 35 34 33 32 33 35 36 37 37 37 38 40 40 40 40 41 41 41 42 43 44 46 48 50 53 53 49 46 48 47 44 42 41 40 42 41 38 36 35 35 36 37 34 30 27 25 25 26 27 28 29 32 35 37 38 39 40 41 43 46 46 44 44 44 44 44 42 39 37 36 36 35 35 35 34 33
40 41 41 40 39 38 37 36 36 35 35 34 33 33 35 36 37 38 38 39 40 41 41 41 41 41 42 42 43 45 46 46 48 51 54 53 49 47 49 47 45 45 45 46 45 42 39 37 37 38 37 34 32 29 25 25 25 26 27 26 28 31 35 37 39 41 42 43 45 45 45 45 44 45 45 45 44 42 40 39 38 37 38 38 37
40 41 41 40 39 39 38 37 37 36 36 35 35 35 35 37 38 39 40 40 40 41 42 42 42 42 42 43 44 44 46 47 48 50 54 56 52 48 49 50 48 46 48 50 48 45 42 40 39 38 35 32 33 32 27 25 25 25 25 25 27 28 31 35 38 40 41 43 44 44 45 46 45 45 45 47 47 47 47 46 44 43 43 42 41
41 42 41 41 40 39 39 39 38 37 37 36 36 36 36 37 38 39 41 41 42 42 42 43 43 43 43 44 45 45 46 47 48 51 54 56 56 53 51 52 50 47 49 52 51 48 46 43 43 41 37 33 34 33 30 27 27 26 23 23 25 26 29 32 33 35 38 41 43 44 44 45 46 45 45 46 47 48 49 49 48 48 46 45 44
42 42 42 42 41 41 40 40 40 39 38 38 38 38 38 38 39 40 41 43 43 44 44 45 44 44 45 45 46 46 46 47 49 51 53 56 57 58 56 54 53 50 49 52 53 51 49 47 46 45 41 37 36 34 31 31 32 30 27 24 24 25 28 30 29 30 34 37 40 42 43 43 44 43 43 43 44 45 46 46 47 46 45 44 42
43 43 43 43 42 42 42 42 42 41 40 39 39 39 40 40 41 41 42 43 45 45 46 46 47 47 47 47 47 47 47 48 50 51 53 56 57 58 58 58 57 54 51 53 54 54 52 50 49 48 46 41 39 36 34 34 34 32 31 29 28 28 29 29 29 30 32 33 35 36 39 40 40 40 39 39 40 40 41 41 41 41 41 40 39
44 44 44 44 44 43 43 43 43 43 42 41 41 41 42 42 43 43 44 45 45 46 47 48 48 49 49 49 49 49 49 49 50 52 53 56 58 57 58 59 59 57 54 53 54 55 55 54 52 51 49 46 42 39 37 37 34 33 35 35 33 32 31 30 30 31 32 33 34 32 32 33 35 36 37 39 38 37 39 40 39 39 39 40 39
45 45 45 45 45 45 45 45 45 45 44 44 44 44 44 45 45 45 45 46 47 47 48 49 49 50 50 51 51 50 50 50 51 52 53 55 58 58 57 59 60 60 58 55 55 56 57 56 55 54 52 49 46 43 42 41 37 36 38 38 38 37 34 32 32 31 31 33 34 34 32 30 29 31 33 36 37 38 40 42 40 40 41 41 40
47 47 46 46 46 47 48 46 46 47 46 46 46 46 46 46 47 47 47 48 48 49 49 50 50 51 51 52 52 52 52 52 52 53 53 54 57 59 58 58 60 61 60 59 57 56 57 58 58 56 54 52 51 49 46 45 42 41 40 41 43 41 38 36 34 34 33 31 32 34 35 34 31 30 29 30 33 36 39 40 39 40 41 41 40
48 48 47 47 48 49 49 48 48 49 49 48 48 48 48 49 49 49 49 50 50 51 51 52 52 52 53 53 53 53 53 53 53 53 54 55 56 58 59 59 59 61 61 61 60 58 58 59 59 59 57 56 55 55 52 49 47 46 45 46 47 45 43 41 39 39 37 34 32 31 34 35 33 32 29 28 30 32 35 36 35 36 38 37 37
50 49 48 48 49 49 50 50 51 51 51 50 50 50 50 51 51 51 51 52 52 53 53 53 54 54 54 55 55 55 55 55 55 55 55 56 57 58 60 60 60 61 62 62 62 62 60 60 60 60 60 59 59 59 57 55 52 51 49 50 50 49 47 46 45 44 41 38 36 34 35 35 33 32 31 30 31 31 31 31 29 30 32 32 32
Wind_Direction
287 288 288 288 288 288 289 289 290 290 290 291 292 293 294 294 295 296 297 298 299 300 301 302 303 303 305 306 307 307 307 307 306 306 305 303 299 297 293 291 290 290 290 291 293 293 294 297 299 300 299 296 293 290 288 286 287 282 273 262 250 239 233 232 233 231 230 230 228 226 226 224 221 216 208 199 190 187 200 209 206 206 209 213 216
288 288 288 288 288 289 290 290 290 291 291 292 293 293 294 294 295 297 299 299 300 300 301 302 303 304 305 306 306 306 306 305 305 305 304 300 297 294 292 290 290 289 289 290 292 293 294 297 299 300 298 295 292 288 286 283 281 273 260 249 240 233 229 230 231 230 229 228 227 225 225 224 221 217 210 202 196 190 197 209 211 211 213 217 222
289 289 288 288 289 289 290 291 291 292 292 292 293 294 295 295 296 298 299 299 300 300 301 302 304 305 305 305 305 305 304 304 304 304 302 298 294 292 290 289 289 288 288 289 291 292 294 297 299 299 296 294 291 287 283 278 273 262 246 238 233 227 225 228 230 229 228 226 226 225 224 224 222 219 213 207 204 197 196 207 215 217 217 221 227
290 290 289 289 289 289 290 290 291 292 293 292 294 295 295 296 297 298 299 299 300 301 302 303 304 304 304 304 304 304 303 303 303 302 301 297 293 290 289 288 287 287 286 288 291 292 294 296 299 298 294 293 289 284 278 270 261 247 233 232 228 223 220 223 229 230 228 226 225 224 223 224 223 221 217 213 213 208 203 206 216 222 224 226 231
289 289 289 289 289 290 290 291 292 293 293 293 294 295 295 296 297 299 299 300 300 301 302 303 303 303 303 303 303 302 302 303 301 300 299 296 291 289 287 286 286 285 285 288 290 292 294 297 298 296 293 291 287 280 271 258 246 234 223 233 231 221 217 217 226 230 229 227 225 225 224 224 223 223 220 219 220 218 215 214 219 226 231 233 237
288 288 288 288 289 290 291 292 293 294 294 294 294 295 296 297 298 299 299 300 300 301 302 302 302 302 302 303 302 301 302 301 299 299 297 294 290 287 285 285 285 284 284 288 290 293 295 297 297 295 292 288 283 274 264 247 237 230 217 233 237 224 217 216 222 229 230 227 226 225 224 225 224 225 225 224 224 223 222 223 225 229 236 239 243
287 287 288 289 290 290 291 292 293 294 294 294 295 295 296 297 298 298 299 299 300 300 301 301 302 302 302 302 301 300 300 300 298 296 294 292 289 286 284 284 283 283 285 288 291 294 295 297 296 293 289 285 279 267 254 236 229 222 208 221 231 224 219 217 221 228 232 229 227 225 226 227 227 228 229 230 229 227 226 226 228 232 238 242 246
286 287 289 289 290 290 291 292 292 293 293 293 294 295 295 296 297 297 298 298 299 300 300 301 301 301 301 300 300 299 299 298 296 293 291 290 288 285 284 282 282 283 286 289 292 295 296 296 295 291 285 280 274 261 242 225 218 213 211 220 224 220 217 217 220 226 232 231 228 227 228 231 233 232 230 234 234 232 231 230 231 233 238 242 247
285 287 288 289 290 290 291 291 292 292 292 293 294 294 295 296 296 296 297 298 298 299 299 300 300 300 300 299 298 297 297 295 291 289 287 289 287 284 283 281 282 284 286 289 293 296 297 296 293 288 281 275 269 253 226 212 212 214 220 226 225 217 213 216 219 225 233 232 227 227 231 236 238 236 232 233 236 235 234 235 235 237 240 244 248
285 286 287 288 289 289 290 290 291 291 292 292 293 294 294 295 295 296 297 297 298 298 298 299 299 299 298 296 295 295 295 291 285 284 285 287 286 283 283 282 283 284 287 291 295 297 298 295 290 285 277 270 262 244 213 202 210 218 224 228 226 215 211 216 218 224 236 235 228 228 234 238 239 237 234 232 233 234 234 237 238 240 243 246 250
284 285 285 286 287 288 289 289 290 290 291 291 292 293 293 294 295 295 296 296 297 297 298 298 298 297 295 293 293 292 290 286 282 282 283 285 284 282 282 283 284 285 288 292 297 299 299 294 288 281 273 267 256 239 212 200 210 218 221 227 224 214 212 214 215 222 234 234 228 230 235 239 239 238 237 233 230 231 232 236 238 242 246 250 253
283 284 284 285 285 286 287 287 288 289 289 290 291 291 292 293 294 295 295 296 296 297 297 296 296 295 293 291 290 288 284 282 281 282 282 282 280 279 282 284 284 286 290 295 300 301 299 293 285 278 271 264 252 236 214 199 208 217 217 224 223 214 213 211 215 227 234 236 232 230 235 238 238 239 239 236 230 228 229 233 237 242 247 252 256
283 283 283 283 284 284 285 286 286 287 288 289 289 290 291 292 293 294 294 295 296 296 295 294 293 292 290 288 287 284 280 279 281 281 280 279 277 279 282 283 283 287 293 298 302 302 300 292 283 276 269 262 249 235 215 199 207 219 216 220 220 213 212 209 216 238 239 235 235 233 235 238 240 241 241 239 232 227 228 231 237 242 248 253 256
282 282 282 283 283 284 284 285 286 286 287 288 289 290 291 292 292 293 294 295 295 294 293 292 290 289 287 285 283 281 278 276 278 279 277 276 277 279 281 281 285 291 296 301 304 303 300 291 282 273 268 259 248 236 214 202 205 217 219 216 217 211 208 210 219 246 242 230 231 232 234 239 241 243 244 243 236 229 228 231 237 242 247 252 256
282 282 282 282 283 283 284 284 285 286 287 287 288 289 290 291 292 292 293 294 293 292 290 288 287 285 284 282 279 276 276 275 275 277 277 277 278 278 279 282 288 294 298 302 304 302 298 290 280 271 266 256 248 235 214 206 204 214 224 219 216 209 205 210 222 243 247 235 232 230 232 237 240 246 248 247 242 233 231 232 237 242 247 252 255
281 281 281 282 282 283 283 284 284 285 286 287 288 289 290 291 291 291 292 292 290 289 287 285 283 282 280 277 274 272 275 275 275 277 277 277 277 278 280 285 291 295 298 302 303 300 296 288 278 270 264 253 246 234 217 210 206 213 224 222 220 214 209 215 224 236 247 244 237 232 232 236 238 244 249 249 246 239 235 234 237 242 247 252 257
280 281 281 281 282 282 283 283 284 285 285 286 287 288 289 290 289 290 290 290 288 285 283 281 280 279 276 273 271 271 274 275 275 276 276 276 276 279 283 288 292 295 298 300 300 297 293 285 276 269 260 252 244 234 219 211 208 214 220 221 222 220 219 221 224 228 244 247 239 233 231 234 236 242 250 250 247 244 241 240 240 243 249 256 262
280 280 280 281 281 282 282 283 283 284 285 286 287 287 288 288 287 287 287 286 284 282 280 278 276 274 271 270 271 272 273 274 274 274 274 274 276 280 284 287 291 294 297 298 296 293 291 282 274 266 258 251 242 232 219 210 208 214 218 221 221 222 221 220 221 222 239 249 243 238 232 232 237 244 252 251 247 247 247 246 245 247 254 261 267
279 280 280 280 281 282 282 283 283 284 284 285 286 286 286 286 285 284 283 281 280 278 277 275 271 269 268 268 271 272 271 270 271 273 274 275 277 280 283 286 290 293 294 293 292 290 287 280 272 266 259 251 240 229 215 207 206 212 216 223 225 224 219 215 217 222 237 244 241 239 233 233 238 243 250 250 246 249 252 253 253 253 259 268 273
279 279 280 280 281 281 282 282 283 283 284 285 285 285 285 283 282 280 278 277 275 274 273 269 265 265 266 268 269 268 267 268 272 275 277 278 279 281 284 287 289 291 290 288 287 286 283 277 271 265 259 250 237 226 213 205 206 210 212 220 227 230 222 211 216 229 239 238 237 238 235 234 235 239 245 251 251 252 255 257 258 257 264 275 284
279 279 280 280 281 281 281 282 282 282 283 283 284 283 282 280 277 275 273 272 272 269 266 261 260 262 264 266 265 263 265 271 276 279 280 280 280 282 284 286 288 288 285 283 283 282 280 275 272 266 259 248 235 225 213 206 207 210 210 215 225 233 224 211 219 235 240 235 236 237 237 234 233 237 242 250 254 254 258 260 261 260 269 277 286
279 279 279 280 280 280 280 281 281 282 282 282 282 282 280 277 273 270 269 268 267 264 260 257 257 258 259 260 259 260 268 276 280 282 283 282 283 284 283 283 285 285 280 279 279 279 279 276 275 268 259 247 235 225 215 210 210 211 211 213 221 233 225 215 223 232 236 234 233 233 234 235 238 241 243 249 254 256 260 263 264 261 266 273 281
278 278 278 279 279 280 280 280 280 281 281 281 280 279 277 274 270 268 266 264 261 257 254 253 253 253 253 254 256 263 273 281 284 284 283 283 284 280 277 280 283 283 278 275 276 278 279 278 276 271 260 248 237 225 216 213 212 212 212 212 219 230 226 221 224 228 229 230 232 235 237 239 242 244 243 248 253 255 258 262 262 259 264 271 278
277 277 278 278 278 279 279 279 279 279 280 279 278 276 274 271 269 268 265 261 258 254 251 249 250 251 251 251 254 265 276 282 285 280 278 280 280 275 272 277 282 281 274 270 274 277 280 280 278 274 264 252 241 228 217 215 213 213 213 213 218 227 228 225 225 229 230 229 234 240 243 242 241 241 242 245 250 253 254 257 257 258 262 266 273
275 276 277 277 277 277 278 278 278 278 278 277 276 274 271 269 267 266 263 260 258 254 250 248 248 250 251 253 256 265 272 276 274 264 269 274 274 272 268 271 279 278 269 266 272 277 281 280 278 276 268 254 242 231 219 215 214 214 213 214 220 226 229 227 228 230 230 232 237 239 246 247 242 239 239 240 246 250 250 253 253 254 256 260 266
274 275 276 275 276 276 276 277 277 276 276 275 274 272 269 267 265 264 261 259 258 254 251 248 247 248 252 256 259 260 254 252 256 257 265 271 273 267 260 265 276 274 266 265 272 278 281 280 278 276 270 257 243 233 222 215 215 215 213 215 222 227 230 230 231 230 227 234 239 235 242 253 245 237 236 238 241 246 248 250 250 250 252 256 261
273 274 274 274 274 274 275 275 275 275 274 273 272 270 268 265 263 261 259 257 256 253 251 248 246 245 248 252 253 250 245 245 254 259 260 264 266 257 255 266 271 266 260 263 271 278 281 278 277 275 269 258 244 234 225 217 216 215 213 217 225 228 230 233 233 230 227 233 238 233 236 252 250 237 233 237 240 244 247 249 250 251 252 254 259
272 272 273 273 273 273 273 273 273 273 272 271 270 269 267 265 261 259 257 255 254 251 248 246 243 241 241 245 244 241 243 240 239 244 242 243 249 248 256 265 265 261 257 262 270 275 277 276 275 272 266 258 246 235 227 220 217 216 214 218 227 231 231 234 235 231 227 232 237 233 231 245 253 244 238 238 241 244 246 247 248 249 251 253 255
270 271 272 272 272 271 271 270 270 270 269 268 267 267 266 264 261 258 255 252 251 249 246 243 240 236 235 238 235 231 233 225 220 226 227 229 238 244 256 265 264 261 257 261 269 270 271 272 272 269 264 257 247 237 228 223 220 218 216 218 227 233 234 234 235 233 231 234 238 236 232 238 250 255 250 246 244 243 243 245 244 246 248 250 251
270 271 271 271 271 270 269 268 267 267 266 265 264 264 264 262 260 257 254 251 248 246 244 241 237 231 227 230 226 221 223 220 223 226 226 231 238 244 253 258 261 263 261 262 267 267 268 270 271 267 261 255 249 240 231 225 222 220 219 219 221 230 235 235 234 234 235 238 240 239 237 237 246 258 259 253 248 243 241 241 241 242 245 247 248
270 270 269 269 269 268 267 266 266 265 264 263 262 261 260 259 258 256 253 250 246 243 242 240 236 228 222 224 219 213 213 216 229 230 225 231 236 238 240 245 255 262 263 266 268 266 266 268 269 266 259 252 248 243 235 227 224 223 222 221 218 221 232 235 235 234 237 241 243 240 239 240 243 252 257 254 250 248 248 249 247 247 249 248 244
269 269 268 267 266 266 266 265 265 264 263 262 260 257 256 255 254 253 251 249 245 241 238 235 233 225 219 220 217 210 206 209 221 225 227 233 233 232 235 244 251 248 248 259 266 265 263 266 269 266 258 250 245 242 238 231 226 225 225 224 221 219 225 233 235 235 238 242 244 241 239 239 241 247 250 244 244 249 253 256 255 256 259 258 252
268 267 265 264 264 264 264 264 264 263 261 259 257 255 252 251 250 249 249 248 245 241 235 227 226 224 218 219 219 211 203 204 211 221 233 239 236 235 240 246 244 234 232 240 248 253 257 264 270 266 258 250 243 240 239 235 229 225 226 227 224 221 221 227 233 235 237 241 244 242 239 239 239 243 241 233 233 240 243 247 250 254 258 261 262
265 264 263 262 263 263 263 262 262 260 259 256 255 253 250 247 246 246 246 245 244 242 235 226 222 224 220 217 218 212 202 203 209 216 228 238 239 238 236 237 235 231 227 227 234 240 246 259 267 265 258 251 245 240 237 235 232 228 226 227 227 224 221 222 229 233 236 239 243 243 241 241 241 240 237 231 233 238 242 244 245 247 250 252 254
262 261 261 261 261 262 261 260 258 257 256 254 252 251 248 246 244 244 243 242 242 241 238 230 225 225 221 216 217 213 203 203 211 214 220 229 234 234 229 228 230 229 223 224 234 238 245 261 266 264 260 253 248 243 237 233 230 229 227 227 228 226 223 222 225 231 234 237 241 243 243 244 242 240 239 236 237 241 246 250 251 252 252 251 248
259 260 259 260 260 260 259 258 256 254 253 253 251 249 247 245 243 242 241 240 240 239 238 235 230 228 225 221 220 219 211 208 212 214 219 226 231 234 233 229 227 225 221 223 229 233 243 255 259 261 261 255 251 246 241 233 228 227 228 228 228 227 225 224 225 227 232 235 238 242 244 245 244 242 241 240 241 245 249 253 256 257 258 258 256
256 259 259 259 258 258 257 256 254 251 250 249 249 247 246 245 242 240 239 238 238 238 237 236 234 231 229 227 225 226 224 219 217 214 216 224 229 233 235 231 227 225 224 223 221 223 235 245 251 257 258 256 252 247 244 238 230 226 227 228 228 228 227 226 227 226 229 234 236 239 242 244 244 242 242 242 244 247 251 254 257 260 261 263 262
253 257 259 258 257 257 256 254 252 250 247 246 245 245 245 244 242 239 237 236 235 236 235 234 234 232 231 230 228 228 228 226 223 218 217 222 226 229 232 233 229 226 226 226 221 222 231 239 246 252 255 255 252 246 243 239 233 227 226 226 227 228 228 227 229 229 230 232 235 237 239 242 243 242 242 244 246 249 252 255 258 261 263 266 267
253 255 256 256 256 256 256 254 251 248 246 244 243 242 243 243 242 239 236 234 233 234 234 233 233 232 231 230 229 228 227 226 225 223 222 225 225 224 226 228 227 225 226 225 223 225 230 236 242 250 251 252 252 246 240 237 234 231 227 227 226 227 228 228 228 231 232 234 234 236 238 241 243 243 244 246 249 250 253 256 259 261 264 266 267
251 252 253 254 255 256 255 254 251 248 245 243 242 241 241 242 241 240 237 234 232 232 232 232 231 231 231 230 229 228 228 227 226 225 225 224 222 220 221 223 225 227 225 223 223 226 230 234 240 247 247 246 247 244 239 236 235 233 230 228 228 228 229 229 228 230 233 235 236 236 237 240 243 244 245 247 249 251 253 256 259 261 262 265 268
250 251 252 253 255 255 255 254 251 248 245 243 241 240 240 240 241 240 238 236 233 232 232 232 232 232 231 230 229 228 228 228 227 226 226 224 220 217 219 220 224 227 224 222 222 224 228 232 238 242 240 241 243 241 239 237 234 233 233 231 230 230 230 230 229 229 231 236 237 237 238 240 241 243 245 247 249 249 250 252 255 258 260 264 267
250 251 252 253 253 254 254 254 252 249 246 244 241 240 239 239 240 240 240 238 236 235 233 233 233 233 233 232 231 229 229 229 228 227 227 226 220 216 217 219 222 225 225 223 222 222 224 228 234 235 235 240 243 241 239 235 233 232 232 233 232 232 232 232 230 229 229 234 238 239 240 242 242 243 244 246 248 249 250 251 252 255 260 263 266
250 251 252 253 253 254 254 254 253 251 248 245 242 240 239 238 238 239 240 240 239 238 237 235 235 235 234 233 233 232 230 230 229 228 228 228 225 220 218 219 221 223 226 226 224 223 222 222 228 230 229 236 242 241 237 232 232 232 229 231 231 231 233 234 234 233 231 232 236 240 242 243 244 245 246 247 248 250 252 254 255 257 260 264 266
249 251 252 253 253 254 254 255 254 253 250 247 244 241 240 239 237 237 238 240 240 240 239 239 238 238 237 236 235 233 232 231 230 230 230 231 230 227 223 222 222 222 224 228 227 225 224 222 224 225 226 232 237 238 237 233 235 238 235 233 233 233 233 234 236 237 236 234 235 238 241 243 245 246 248 249 249 251 253 256 258 259 261 264 266
249 251 252 253 254 254 255 255 255 254 251 249 246 244 242 241 239 238 238 238 239 239 240 240 240 240 240 239 238 235 233 232 232 231 231 233 234 232 229 225 225 224 222 227 230 228 225 225 225 225 227 229 231 232 235 238 239 241 242 239 235 236 238 236 236 237 236 236 236 237 238 241 244 246 248 250 250 251 253 254 257 259 261 262 263
250 251 252 253 254 255 255 256 256 255 253 250 248 246 244 243 241 240 239 239 239 239 239 239 240 240 240 240 240 239 236 234 233 232 232 233 235 235 233 230 228 227 223 224 229 230 227 226 228 228 229 229 228 226 230 237 239 240 242 239 232 233 238 239 238 238 236 234 235 236 237 238 241 244 246 249 251 252 253 254 254 256 258 258 260
251 251 251 252 254 255 256 256 257 256 255 253 250 248 246 244 243 242 241 240 240 240 240 240 240 240 240 240 240 241 240 237 235 234 233 234 236 237 236 234 232 231 227 223 225 228 229 227 228 230 231 230 227 224 226 232 235 238 241 240 233 230 232 234 236 238 238 236 234 234 236 237 239 242 243 246 250 252 254 254 253 254 256 258 259
252 251 251 251 252 254 255 255 256 256 255 254 252 250 248 246 245 244 243 242 242 242 242 242 242 242 241 241 240 240 240 240 239 237 235 234 236 238 238 237 236 235 233 229 224 225 228 229 228 229 231 230 228 225 226 227 227 231 236 238 236 232 230 232 232 232 235 237 236 235 236 236 238 241 243 246 249 251 253 254 254 254 255 257 258
254 253 251 251 251 252 252 254 255 256 255 255 254 252 251 248 247 246 245 244 244 243 243 243 243 243 243 243 242 242 240 240 240 240 239 237 237 239 239 239 239 239 238 236 231 226 225 227 229 229 230 230 228 227 227 227 226 226 228 232 235 234 232 233 233 232 231 232 234 235 236 237 238 240 243 246 248 249 251 253 253 254 255 255 255
256 255 253 252 251 251 251 252 254 255 255 255 255 254 253 251 250 248 247 246 245 245 244 244 244 244 244 244 244 244 243 241 241 240 241 240 238 239 240 240 240 240 241 240 238 233 228 226 227 229 230 229 228 228 229 229 228 227 227 228 231 232 231 232 232 232 230 227 227 229 231 233 234 237 240 244 247 249 250 252 253 255 255 256 256
257 257 256 254 253 253 252 251 252 254 255 255 255 255 254 252 251 250 249 248 247 246 246 245 245 244 244 244 244 245 244 243 243 241 241 241 240 240 241 241 241 241 241 241 241 240 236 230 226 227 229 230 230 229 230 230 229 229 229 229 231 231 232 232 232 232 231 229 227 226 227 227 228 231 235 239 243 245 248 250 251 253 254 253 253
Height
10900 10899 10899 10900 10900 10901 10901 10901 10900 10899 10898 10898 10897 10895 10893 10892 10890 10889 10887 10886 10886 10886 10884 10881 10878 10876 10874 10873 10871 10869 10867 10865 10865 10865 10863 10861 10858 10857 10855 10854 10853 10852 10851 10850 10850 10850 10849 10848 10847 10846 10846 10845 10844 10843 10842 10842 10843 10844 10845 10845 10846 10846 10847 10849 10851 10852 10854 10856 10857 10858 10859 10860 10860 10859 10859 10858 10857 10857 10858 10859 10859 10860 10860 10860 10860
10896 10894 10893 10894 10894 10895 10895 10895 10894 10893 10893 10892 10891 10890 10888 10887 10885 10884 10883 10882 10882 10881 10879 10876 10874 10871 10868 10867 10867 10864 10861 10860 10860 10860 10858 10857 10854 10852 10851 10850 10849 10848 10847 10847 10847 10847 10846 10845 10844 10843 10842 10842 10841 10840 10839 10839 10841 10841 10842 10843 10844 10845 10846 10848 10850 10852 10853 10855 10856 10857 10858 10859 10859 10859 10859 10858 10857 10856 10857 10858 10858 10859 10859 10859 10859
10892 10889 10887 10888 10888 10889 10890 10889 10888 10887 10887 10886 10886 10884 10883 10882 10881 10880 10878 10876 10876 10876 10873 10871 10869 10866 10863 10862 10862 10859 10856 10855 10855 10854 10853 10852 10849 10848 10847 10846 10845 10844 10843 10843 10844 10844 10843 10842 10840 10840 10839 10839 10839 10838 10837 10837 10838 10839 10840 10842 10843 10844 10845 10847 10849 10850 10852 10853 10855 10856 10857 10858 10859 10859 10859 10858 10857 10856 10856 10857 10858 10858 10858 10858 10859
10890 10882 10880 10881 10881 10883 10884 10883 10882 10881 10882 10881 10880 10879 10878 10878 10876 10874 10872 10871 10871 10870 10868 10866 10864 10862 10858 10856 10855 10852 10851 10851 10850 10849 10848 10847 10845 10843 10842 10842 10842 10841 10840 10840 10840 10841 10840 10838 10837 10837 10836 10836 10836 10835 10834 10835 10836 10837 10839 10840 10841 10842 10844 10846 10848 10849 10851 10852 10853 10854 10856 10857 10858 10858 10858 10858 10858 10857 10856 10856 10857 10857 10858 10858 10858
10885 10877 10874 10874 10876 10878 10877 10878 10876 10875 10876 10876 10875 10873 10873 10872 10872 10869 10867 10865 10864 10863 10862 10861 10859 10857 10853 10852 10850 10846 10845 10846 10845 10844 10844 10842 10841 10839 10838 10838 10838 10837 10836 10837 10838 10838 10837 10835 10834 10834 10833 10833 10834 10833 10832 10832 10834 10835 10837 10839 10840 10841 10843 10845 10847 10848 10850 10851 10852 10853 10854 10856 10857 10858 10858 10858 10857 10857 10857 10856 10857 10857 10857 10857 10858
10875 10870 10868 10868 10872 10872 10871 10872 10870 10869 10869 10870 10869 10867 10867 10867 10867 10864 10861 10859 10858 10857 10856 10855 10854 10852 10849 10847 10844 10840 10841 10842 10840 10839 10839 10837 10836 10835 10834 10833 10834 10834 10833 10834 10835 10835 10834 10832 10831 10831 10830 10831 10831 10830 10829 10830 10831 10832 10834 10837 10838 10840 10842 10844 10846 10847 10849 10850 10851 10852 10853 10855 10856 10857 10857 10857 10857 10857 10856 10856 10856 10856 10857 10857 10857
10867 10863 10863 10864 10867 10866 10866 10867 10865 10863 10863 10864 10863 10862 10861 10861 10861 10859 10856 10854 10852 10851 10850 10849 10848 10846 10844 10841 10838 10835 10836 10837 10835 10834 10834 10833 10831 10830 10830 10829 10830 10830 10830 10831 10832 10832 10830 10829 10828 10828 10827 10827 10828 10827 10827 10828 10829 10830 10832 10835 10836 10838 10840 10842 10844 10846 10848 10849 10850 10851 10852 10853 10854 10855 10856 10856 10856 10856 10855 10855 10855 10855 10856 10856 10857
10863 10860 10859 10859 10860 10860 10861 10861 10859 10857 10857 10857 10858 10857 10855 10855 10855 10854 10851 10848 10848 10846 10844 10843 10842 10841 10838 10836 10832 10829 10831 10832 10831 10829 10829 10829 10827 10826 10826 10826 10827 10827 10827 10828 10829 10829 10827 10826 10825 10825 10825 10824 10824 10824 10824 10826 10827 10829 10831 10832 10834 10836 10839 10841 10843 10845 10847 10848 10849 10850 10851 10852 10853 10854 10854 10855 10855 10855 10855 10855 10854 10854 10855 10855 10855
10861 10859 10856 10854 10853 10854 10855 10854 10853 10852 10851 10851 10852 10852 10850 10849 10848 10848 10846 10843 10842 10841 10838 10837 10836 10835 10832 10830 10827 10824 10826 10828 10826 10825 10825 10825 10823 10822 10823 10823 10824 10824 10824 10825 10826 10826 10824 10823 10822 10822 10821 10821 10821 10820 10821 10824 10826 10828 10829 10831 10833 10835 10838 10840 10842 10844 10846 10847 10848 10849 10850 10850 10851 10852 10853 10853 10853 10853 10853 10853 10854 10854 10853 10854 10854
10856 10856 10854 10851 10848 10847 10848 10848 10847 10846 10846 10845 10846 10846 10845 10843 10842 10842 10840 10838 10836 10834 10833 10831 10830 10830 10827 10825 10822 10819 10820 10823 10822 10822 10821 10821 10819 10819 10820 10820 10821 10821 10821 10822 10823 10823 10821 10820 10819 10819 10818 10818 10818 10818 10819 10821 10824 10826 10828 10829 10832 10834 10837 10840 10841 10843 10845 10846 10847 10847 10848 10848 10849 10850 10851 10851 10852 10852 10852 10852 10852 10852 10852 10853 10853
10850 10851 10849 10846 10843 10842 10841 10841 10841 10840 10839 10839 10839 10839 10838 10838 10837 10836 10834 10832 10830 10828 10827 10825 10823 10823 10822 10820 10818 10816 10816 10817 10818 10818 10817 10816 10816 10816 10816 10817 10818 10818 10819 10820 10820 10819 10818 10816 10815 10815 10815 10815 10815 10816 10817 10819 10821 10823 10826 10827 10830 10832 10836 10838 10840 10842 10843 10844 10845 10845 10846 10846 10847 10848 10849 10849 10850 10850 10851 10851 10851 10851 10851 10852 10852
10843 10844 10844 10841 10839 10837 10835 10835 10834 10833 10832 10832 10833 10833 10832 10832 10830 10829 10828 10826 10824 10822 10821 10820 10818 10817 10816 10815 10814 10813 10813 10813 10813 10814 10813 10812 10812 10812 10813 10814 10814 10815 10816 10817 10817 10816 10815 10813 10812 10812 10812 10813 10813 10814 10814 10816 10819 10821 10824 10825 10828 10831 10834 10836 10838 10841 10842 10843 10843 10843 10844 10844 10845 10846 10847 10847 10848 10849 10849 10849 10850 10850 10850 10850 10851
10836 10837 10836 10834 10833 10831 10830 10829 10828 10827 10826 10826 10825 10827 10827 10826 10824 10823 10821 10819 10819 10817 10815 10814 10812 10811 10811 10810 10809 10809 10809 10809 10809 10810 10808 10807 10808 10809 10810 10810 10811 10812 10812 10813 10813 10813 10812 10810 10810 10810 10810 10811 10812 10812 10813 10814 10816 10819 10821 10823 10825 10829 10832 10834 10837 10839 10840 10841 10841 10842 10842 10843 10844 10845 10845 10846 10847 10847 10847 10848 10848 10848 10848 10849 10849
10829 10829 10828 10827 10826 10823 10823 10822 10821 10820 10819 10819 10818 10819 10820 10820 10818 10816 10815 10813 10812 10811 10809 10808 10806 10805 10805 10805 10804 10804 10805 10806 10806 10806 10805 10804 10804 10805 10806 10807 10807 10808 10809 10809 10809 10809 10809 10808 10807 10807 10807 10809 10810 10810 10811 10812 10814 10817 10819 10821 10823 10827 10830 10833 10834 10835 10837 10838 10839 10840 10841 10841 10842 10843 10844 10845 10845 10846 10846 10847 10847 10847 10847 10848 10848
10820 10821 10820 10819 10819 10817 10816 10815 10815 10813 10812 10813 10812 10813 10813 10814 10813 10810 10810 10808 10806 10805 10804 10802 10800 10800 10800 10801 10800 10799 10801 10802 10802 10802 10802 10801 10801 10801 10802 10803 10804 10805 10805 10805 10806 10806 10806 10805 10804 10804 10805 10806 10807 10808 10809 10811 10813 10815 10817 10819 10822 10825 10828 10830 10831 10833 10835 10836 10837 10838 10839 10839 10840 10841 10843 10844 10844 10845 10845 10846 10846 10846 10847 10847 10847
10813 10813 10812 10811 10811 10810 10809 10808 10808 10807 10807 10807 10807 10807 10806 10807 10806 10804 10804 10803 10801 10799 10798 10797 10796 10796 10797 10797 10796 10796 10796 10798 10798 10798 10798 10798 10798 10798 10799 10800 10801 10802 10802 10802 10802 10803 10803 10803 10801 10801 10802 10803 10805 10806 10807 10809 10811 10814 10816 10818 10820 10822 10824 10827 10829 10831 10833 10834 10835 10836 10837 10837 10839 10840 10841 10843 10843 10844 10844 10845 10845 10845 10846 10846 10846
10806 10805 10804 10804 10804 10803 10803 10802 10801 10801 10801 10802 10802 10801 10800 10800 10799 10797 10798 10797 10796 10794 10793 10792 10791 10792 10792 10793 10793 10792 10793 10794 10794 10794 10795 10795 10795 10794 10795 10796 10797 10798 10798 10799 10799 10799 10800 10799 10798 10798 10799 10801 10802 10803 10805 10807 10810 10812 10814 10816 10818 10820 10822 10825 10827 10828 10830 10832 10833 10834 10835 10836 10837 10839 10840 10841 10842 10843 10843 10844 10844 10844 10845 10845 10845
10797 10797 10797 10796 10797 10797 10796 10795 10795 10794 10795 10796 10796 10796 10795 10794 10792 10791 10791 10790 10789 10788 10788 10788 10787 10787 10788 10789 10789 10789 10790 10790 10790 10791 10792 10792 10791 10791 10792 10793 10794 10795 10795 10796 10796 10796 10796 10796 10795 10795 10796 10798 10799 10800 10802 10805 10808 10810 10812 10814 10815 10818 10820 10822 10824 10826 10827 10828 10831 10832 10833 10834 10835 10837 10839 10840 10841 10842 10842 10843 10843 10844 10844 10844 10844
10788 10789 10789 10789 10789 10789 10789 10788 10788 10787 10788 10789 10790 10791 10790 10788 10785 10784 10784 10784 10783 10782 10783 10783 10783 10783 10784 10785 10785 10786 10786 10787 10787 10788 10789 10789 10788 10788 10788 10789 10791 10792 10793 10793 10793 10793 10793 10792 10792 10792 10794 10795 10796 10797 10799 10802 10805 10807 10810 10812 10813 10815 10817 10820 10822 10824 10824 10825 10828 10829 10830 10832 10834 10836 10837 10838 10840 10840 10841 10842 10842 10843 10843 10843 10843
10781 10781 10781 10781 10781 10781 10781 10781 10780 10780 10781 10783 10783 10785 10784 10782 10779 10777 10777 10778 10778 10778 10778 10778 10779 10780 10781 10782 10782 10782 10783 10783 10784 10785 10786 10786 10785 10785 10785 10786 10787 10789 10789 10790 10790 10790 10789 10789 10789 10790 10791 10792 10794 10795 10796 10799 10802 10804 10808 10810 10811 10812 10815 10817 10819 10821 10822 10823 10825 10826 10828 10830 10831 10833 10835 10837 10838 10839 10840 10840 10841 10841 10841 10841 10841
10773 10773 10773 10773 10773 10773 10773 10773 10772 10772 10774 10775 10776 10778 10778 10776 10774 10772 10771 10772 10773 10773 10773 10774 10776 10777 10779 10779 10780 10780 10780 10780 10779 10780 10782 10782 10782 10782 10781 10783 10784 10785 10786 10786 10787 10787 10787 10786 10787 10788 10789 10790 10791 10792 10794 10797 10799 10802 10805 10807 10809 10810 10812 10815 10816 10818 10819 10820 10822 10824 10826 10827 10829 10831 10833 10835 10836 10837 10838 10838 10839 10839 10840 10840 10839
10764 10765 10765 10765 10764 10764 10765 10765 10765 10765 10767 10768 10769 10770 10771 10769 10767 10766 10767 10768 10768 10768 10769 10771 10772 10774 10776 10776 10777 10777 10777 10776 10775 10776 10778 10778 10778 10778 10778 10779 10781 10782 10783 10783 10783 10784 10784 10784 10785 10786 10787 10788 10789 10790 10792 10795 10797 10801 10803 10805 10807 10808 10810 10812 10812 10814 10815 10817 10819 10821 10823 10825 10827 10829 10830 10832 10833 10835 10836 10836 10837 10837 10838 10838 10838
10755 10756 10757 10757 10756 10755 10756 10757 10757 10757 10759 10761 10762 10763 10763 10762 10760 10760 10763 10764 10764 10764 10765 10767 10768 10771 10772 10773 10774 10774 10774 10773 10772 10772 10773 10774 10774 10774 10774 10776 10778 10779 10780 10780 10781 10781 10782 10782 10783 10784 10785 10786 10787 10788 10790 10792 10795 10798 10801 10803 10805 10806 10808 10808 10809 10811 10813 10815 10817 10819 10821 10822 10825 10826 10828 10830 10831 10833 10834 10834 10835 10835 10836 10836 10836
10747 10746 10750 10750 10748 10748 10747 10749 10750 10750 10751 10753 10755 10756 10756 10755 10754 10755 10757 10758 10758 10759 10760 10762 10765 10767 10769 10770 10771 10771 10771 10771 10771 10770 10769 10770 10770 10771 10771 10773 10775 10776 10778 10778 10778 10779 10780 10780 10781 10782 10783 10784 10785 10786 10788 10790 10793 10795 10798 10801 10803 10804 10805 10806 10807 10808 10810 10813 10815 10816 10818 10820 10822 10824 10825 10827 10828 10830 10831 10832 10833 10833 10834 10834 10834
10739 10737 10742 10742 10741 10741 10739 10740 10742 10743 10744 10745 10747 10748 10749 10749 10749 10749 10750 10752 10752 10754 10756 10758 10761 10764 10766 10768 10768 10769 10770 10769 10770 10769 10766 10766 10767 10768 10768 10770 10772 10774 10775 10776 10776 10777 10777 10778 10778 10780 10781 10782 10783 10784 10785 10787 10790 10793 10796 10799 10800 10802 10803 10804 10805 10805 10808 10811 10812 10813 10815 10817 10819 10821 10822 10824 10826 10827 10828 10829 10830 10831 10831 10831 10832
10731 10730 10734 10734 10733 10734 10733 10733 10733 10736 10737 10738 10738 10740 10742 10743 10743 10743 10744 10745 10746 10749 10750 10754 10757 10761 10767 10767 10764 10764 10766 10766 10767 10767 10764 10764 10764 10764 10765 10767 10769 10771 10772 10773 10774 10774 10775 10775 10776 10777 10779 10780 10781 10782 10783 10785 10788 10790 10793 10796 10797 10799 10800 10802 10802 10803 10806 10808 10808 10811 10813 10815 10817 10818 10820 10821 10822 10824 10825 10826 10827 10828 10829 10829 10830
10724 10723 10725 10726 10727 10727 10727 10726 10725 10728 10730 10731 10731 10731 10734 10736 10737 10737 10738 10739 10741 10743 10745 10749 10752 10758 10766 10762 10757 10758 10760 10763 10764 10765 10763 10762 10761 10760 10761 10764 10766 10768 10770 10770 10770 10771 10772 10773 10773 10774 10776 10778 10778 10779 10781 10783 10785 10787 10791 10793 10794 10796 10798 10799 10800 10802 10804 10805 10806 10809 10811 10812 10814 10816 10817 10818 10819 10821 10822 10824 10824 10825 10826 10827 10827
10717 10716 10718 10719 10720 10720 10720 10721 10719 10722 10723 10724 10725 10724 10727 10729 10731 10731 10733 10734 10735 10738 10740 10743 10747 10755 10759 10753 10752 10755 10757 10759 10761 10762 10762 10761 10759 10757 10759 10761 10762 10765 10767 10767 10767 10768 10769 10770 10771 10771 10773 10775 10776 10777 10778 10780 10782 10785 10788 10790 10792 10793 10795 10797 10798 10800 10802 10803 10804 10806 10808 10810 10812 10813 10815 10815 10817 10818 10820 10821 10821 10822 10823 10824 10824
10710 10710 10711 10712 10713 10713 10714 10715 10715 10716 10717 10719 10719 10718 10720 10722 10724 10726 10727 10728 10730 10732 10735 10738 10743 10749 10750 10746 10749 10753 10753 10756 10757 10758 10759 10758 10757 10756 10757 10758 10759 10761 10763 10764 10764 10764 10766 10767 10768 10769 10770 10772 10773 10774 10776 10777 10780 10782 10785 10788 10790 10791 10793 10794 10796 10798 10800 10801 10802 10804 10806 10807 10809 10811 10812 10813 10814 10815 10817 10818 10819 10820 10821 10822 10822
10704 10705 10705 10705 10706 10706 10708 10709 10710 10710 10712 10714 10714 10713 10715 10716 10718 10720 10721 10723 10725 10727 10729 10733 10738 10743 10742 10741 10746 10749 10751 10753 10754 10756 10757 10756 10755 10756 10757 10757 10757 10758 10759 10760 10761 10761 10762 10763 10765 10766 10767 10768 10770 10772 10773 10775 10776 10779 10782 10785 10788 10789 10790 10791 10793 10796 10797 10798 10799 10802 10804 10805 10806 10808 10809 10810 10811 10812 10814 10815 10816 10817 10818 10819 10819
10698 10698 10699 10699 10699 10700 10701 10703 10704 10705 10707 10708 10709 10709 10710 10711 10712 10714 10716 10718 10721 10722 10724 10728 10732 10737 10738 10738 10740 10745 10749 10751 10752 10754 10754 10754 10754 10755 10755 10755 10756 10757 10756 10756 10758 10759 10759 10760 10762 10763 10764 10766 10767 10769 10771 10772 10774 10776 10778 10781 10785 10786 10787 10788 10791 10793 10794 10795 10797 10799 10801 10803 10804 10805 10806 10807 10809 10810 10811 10813 10814 10815 10816 10816 10817
10691 10692 10693 10693 10693 10694 10695 10697 10699 10700 10701 10702 10704 10705 10705 10707 10708 10709 10711 10713 10716 10718 10721 10723 10726 10730 10733 10732 10734 10741 10746 10748 10749 10749 10750 10750 10751 10752 10753 10753 10754 10754 10754 10753 10754 10756 10757 10758 10759 10760 10762 10763 10764 10766 10768 10769 10770 10772 10774 10777 10781 10783 10784 10786 10788 10790 10792 10792 10794 10796 10798 10800 10802 10803 10803 10804 10806 10808 10809 10810 10811 10812 10813 10814 10815
10684 10686 10686 10687 10688 10689 10690 10692 10693 10695 10696 10697 10698 10700 10701 10703 10703 10704 10706 10708 10710 10713 10716 10719 10720 10723 10727 10727 10729 10736 10741 10744 10746 10746 10746 10745 10746 10748 10750 10751 10751 10752 10751 10750 10751 10753 10754 10756 10756 10757 10759 10760 10761 10763 10764 10766 10767 10769 10771 10773 10777 10779 10781 10783 10785 10787 10788 10789 10790 10793 10795 10798 10799 10800 10801 10802 10804 10805 10806 10807 10808 10809 10810 10812 10813
10677 10679 10680 10681 10682 10684 10686 10688 10689 10690 10691 10693 10693 10695 10697 10698 10699 10700 10702 10704 10705 10708 10711 10714 10716 10718 10722 10723 10725 10731 10735 10739 10742 10742 10741 10740 10741 10744 10747 10749 10749 10749 10749 10748 10748 10749 10751 10753 10754 10755 10756 10757 10758 10760 10761 10763 10764 10766 10768 10770 10772 10775 10778 10780 10782 10783 10785 10786 10787 10789 10792 10794 10796 10798 10799 10800 10801 10802 10803 10805 10806 10807 10808 10809 10810
10670 10673 10675 10676 10678 10680 10682 10683 10685 10685 10687 10688 10689 10691 10693 10694 10695 10696 10698 10700 10701 10703 10706 10709 10712 10714 10718 10719 10720 10725 10730 10734 10736 10737 10737 10735 10735 10740 10745 10748 10747 10746 10747 10746 10745 10746 10747 10749 10752 10753 10753 10755 10756 10757 10758 10759 10761 10763 10764 10766 10768 10770 10773 10776 10779 10780 10781 10783 10784 10785 10788 10791 10793 10795 10796 10797 10798 10799 10801 10802 10804 10805 10806 10807 10807
10665 10668 10670 10672 10674 10676 10678 10679 10681 10682 10683 10685 10686 10687 10689 10691 10692 10693 10695 10696 10697 10699 10701 10704 10707 10709 10713 10715 10716 10720 10726 10729 10729 10731 10732 10732 10733 10736 10741 10744 10745 10744 10744 10744 10745 10745 10744 10746 10748 10750 10751 10752 10753 10754 10755 10756 10758 10759 10761 10762 10764 10766 10769 10772 10775 10777 10778 10779 10781 10782 10785 10787 10789 10791 10792 10794 10795 10797 10798 10800 10801 10802 10803 10804 10805
10662 10663 10666 10668 10670 10672 10673 10675 10676 10678 10680 10681 10682 10683 10685 10686 10688 10690 10691 10692 10694 10695 10697 10700 10702 10705 10708 10710 10712 10715 10719 10722 10725 10727 10728 10729 10731 10733 10736 10739 10739 10740 10740 10741 10744 10744 10743 10744 10746 10748 10749 10750 10750 10751 10752 10754 10755 10756 10758 10759 10760 10762 10765 10767 10770 10773 10775 10776 10778 10780 10781 10783 10785 10787 10789 10791 10793 10794 10796 10797 10799 10800 10801 10802 10803
10661 10660 10662 10664 10666 10668 10669 10671 10672 10674 10676 10677 10679 10680 10681 10682 10684 10686 10688 10689 10690 10691 10693 10695 10697 10700 10702 10704 10708 10711 10713 10715 10719 10723 10724 10725 10728 10730 10733 10734 10734 10735 10736 10737 10740 10741 10741 10742 10744 10745 10746 10747 10748 10748 10749 10751 10752 10753 10754 10755 10757 10758 10760 10763 10766 10768 10771 10773 10775 10776 10778 10779 10781 10783 10786 10788 10790 10791 10793 10794 10796 10797 10798 10799 10800
10659 10658 10658 10660 10662 10664 10665 10667 10668 10670 10672 10674 10675 10676 10677 10678 10679 10682 10684 10686 10687 10688 10690 10692 10693 10695 10697 10700 10703 10706 10707 10709 10713 10717 10719 10721 10724 10726 10728 10729 10729 10731 10731 10732 10735 10737 10739 10740 10741 10742 10743 10744 10745 10746 10747 10747 10748 10750 10751 10752 10754 10755 10756 10758 10761 10764 10766 10769 10771 10772 10774 10776 10777 10780 10783 10785 10787 10788 10790 10791 10793 10794 10795 10796 10797
10656 10655 10655 10657 10659 10660 10661 10662 10664 10666 10668 10670 10672 10673 10673 10674 10675 10677 10680 10682 10683 10684 10686 10688 10690 10691 10693 10696 10699 10701 10702 10704 10708 10711 10714 10717 10719 10721 10723 10724 10725 10726 10727 10729 10731 10734 10736 10737 10738 10739 10740 10741 10743 10743 10744 10745 10746 10747 10748 10749 10750 10751 10752 10754 10757 10759 10762 10764 10766 10768 10771 10772 10774 10778 10780 10782 10784 10785 10787 10788 10790 10791 10792 10793 10793
10652 10652 10652 10654 10656 10657 10657 10658 10660 10662 10664 10666 10668 10670 10670 10671 10672 10674 10676 10677 10679 10681 10682 10684 10686 10687 10689 10692 10694 10696 10697 10700 10703 10706 10709 10712 10714 10717 10718 10720 10721 10722 10722 10724 10727 10729 10732 10733 10734 10735 10737 10739 10739 10740 10742 10743 10743 10744 10744 10746 10747 10748 10750 10751 10753 10755 10757 10759 10761 10764 10767 10768 10771 10774 10776 10778 10780 10782 10783 10784 10786 10787 10788 10789 10790
10648 10648 10649 10651 10652 10653 10653 10654 10655 10658 10660 10662 10665 10666 10667 10668 10669 10670 10672 10673 10675 10677 10678 10680 10682 10684 10686 10688 10689 10691 10693 10696 10699 10701 10704 10706 10709 10711 10713 10714 10716 10717 10718 10720 10722 10725 10727 10729 10730 10732 10734 10736 10736 10737 10739 10740 10740 10740 10741 10743 10744 10746 10746 10747 10748 10750 10752 10755 10757 10760 10762 10765 10768 10770 10772 10774 10776 10778 10778 10780 10782 10783 10783 10784 10786
10644 10644 10645 10647 10648 10649 10649 10650 10651 10653 10656 10658 10661 10663 10664 10665 10666 10667 10668 10669 10671 10673 10674 10676 10678 10680 10681 10683 10685 10687 10690 10693 10695 10696 10698 10700 10704 10706 10707 10709 10711 10713 10715 10717 10718 10720 10723 10725 10726 10727 10729 10732 10732 10733 10735 10737 10737 10737 10739 10740 10741 10741 10743 10744 10744 10746 10748 10751 10754 10756 10758 10761 10763 10765 10768 10770 10772 10773 10774 10775 10777 10779 10780 10780 10781
10639 10640 10641 10643 10644 10645 10645 10646 10647 10649 10652 10654 10656 10658 10660 10661 10663 10664 10665 10665 10667 10668 10670 10672 10674 10675 10676 10678 10680 10683 10686 10688 10690 10691 10693 10696 10698 10700 10701 10703 10706 10709 10711 10713 10714 10716 10719 10720 10721 10722 10724 10727 10728 10729 10732 10733 10734 10735 10736 10737 10737 10738 10739 10740 10741 10743 10745 10747 10749 10752 10754 10757 10759 10761 10763 10765 10767 10769 10770 10772 10773 10774 10776 10777 10777
10635 10636 10637 10638 10640 10641 10642 10642 10643 10645 10647 10649 10651 10653 10655 10657 10658 10660 10661 10662 10663 10664 10665 10667 10669 10670 10672 10673 10675 10678 10681 10683 10684 10686 10689 10690 10692 10694 10696 10698 10701 10704 10707 10708 10709 10711 10714 10716 10716 10717 10719 10721 10723 10725 10728 10729 10730 10732 10733 10735 10735 10736 10736 10737 10739 10740 10742 10744 10745 10747 10750 10752 10754 10756 10759 10760 10762 10764 10766 10768 10768 10769 10771 10772 10772
10631 10632 10633 10634 10636 10636 10637 10638 10639 10640 10642 10645 10646 10648 10650 10651 10653 10655 10656 10657 10658 10660 10661 10662 10664 10665 10667 10668 10670 10672 10675 10677 10679 10681 10683 10685 10686 10688 10690 10692 10695 10697 10701 10703 10704 10706 10709 10711 10712 10713 10715 10717 10719 10721 10723 10724 10726 10729 10730 10731 10732 10732 10733 10734 10736 10738 10739 10741 10743 10744 10746 10748 10749 10752 10754 10755 10757 10759 10761 10762 10764 10765 10766 10767 10768
10626 10627 10628 10630 10631 10632 10633 10634 10634 10635 10637 10639 10641 10643 10644 10646 10648 10649 10651 10652 10653 10655 10656 10658 10659 10660 10662 10663 10665 10667 10670 10672 10673 10675 10678 10679 10680 10682 10684 10686 10689 10691 10694 10697 10699 10700 10703 10706 10708 10709 10710 10712 10715 10716 10717 10718 10722 10725 10725 10726 10728 10729 10730 10731 10733 10734 10736 10737 10739 10741 10742 10744 10746 10748 10750 10751 10752 10755 10756 10757 10759 10761 10762 10763 10765
10621 10622 10624 10625 10626 10627 10628 10629 10629 10630 10631 10633 10635 10637 10638 10640 10642 10643 10645 10647 10649 10650 10652 10653 10654 10655 10657 10658 10660 10662 10664 10666 10668 10670 10672 10674 10675 10676 10679 10681 10683 10685 10687 10690 10693 10695 10697 10700 10702 10703 10705 10707 10710 10711 10712 10713 10716 10718 10719 10721 10723 10725 10727 10728 10729 10730 10731 10733 10735 10737 10739 10741 10742 10744 10745 10747 10748 10751 10751 10752 10754 10756 10757 10759 10761
10615 10616 10618 10620 10621 10622 10622 10624 10624 10624 10626 10627 10629 10631 10632 10634 10636 10638 10640 10642 10643 10645 10646 10648 10649 10650 10652 10653 10655 10656 10659 10661 10663 10665 10667 10669 10670 10671 10673 10675 10677 10679 10681 10684 10686 10689 10691 10693 10696 10698 10700 10702 10705 10706 10707 10708 10710 10711 10714 10717 10718 10720 10723 10725 10726 10726 10727 10729 10730 10733 10734 10736 10738 10740 10741 10743 10744 10746 10746 10747 10750 10752 10753 10754 10756
10609 10610 10613 10614 10615 10616 10617 10619 10619 10619 10620 10621 10623 10625 10627 10628 10630 10632 10634 10635 10637 10638 10640 10642 10643 10645 10646 10648 10649 10651 10653 10655 10657 10659 10661 10663 10665 10666 10667 10669 10672 10673 10675 10678 10680 10683 10685 10687 10690 10693 10695 10697 10699 10701 10702 10704 10706 10706 10708 10711 10712 10715 10717 10720 10721 10721 10723 10725 10726 10728 10730 10731 10734 10735 10737 10738 10740 10741 10742 10743 10745 10747 10748 10750 10751
10603 10604 10606 10607 10608 10610 10611 10613 10613 10613 10614 10616 10617 10618 10620 10622 10623 10625 10627 10628 10630 10632 10633 10635 10637 10639 10640 10642 10643 10645 10647 10649 10651 10653 10655 10657 10659 10660 10661 10663 10665 10667 10669 10671 10673 10676 10678 10681 10684 10687 10689 10691 10692 10695 10697 10699 10701 10702 10704 10705 10707 10709 10711 10714 10715 10716 10719 10722 10723 10724 10725 10727 10730 10731 10732 10734 10735 10737 10738 10739 10741 10742 10744 10746 10747